Tracking 35274 objects as of 10-Sep-2026
HD Live streaming from Space Station
objects crossing your sky now

STARLINK-1762

Track STARLINK-1762 now!
10-day predictions
STARLINK-1762 is classified as:


NORAD ID: 46342
Int'l Code: 2020-062T
Launch date: September 3, 2020
Source: United States (US)
Launch site: AIR FORCE EASTERN TEST RANGE (AFETR)
Your satellite tracking list
Your tracking list is empty




NASA's NSSDC Master Catalog

Two Line Element Set (TLE):
1 46342U 20062T   26252.34657893  .00049865  00000-0  96283-3 0  9994
2 46342  53.1496 227.2742 0004623  75.4441 284.7080 15.47328081332663
Source of the keplerian elements: AFSPC